Weather History for Oceana NAS, VA

Change the Weather History Date:

Thursday, August 22, 2013

  Actual Average Record
Temperature  
Mean Temperature 80 °F -  
Max Temperature 89 °F 82 °F 91 °F (2003)
Min Temperature 73 °F 67 °F 64 °F (1997)
Cooling Degree Days 15    
Growing Degree Days 30 (Base 50)    
Moisture  
Dew Point 73 °F    
Average Humidity 81    
Maximum Humidity 96    
Minimum Humidity 57    
Precipitation  
Precipitation 0.01 in - - ()
Sea Level Pressure  
Sea Level Pressure 30.05 in    
Wind  
Wind Speed 6 mph (SW)    
Max Wind Speed 10 mph    
Max Gust Speed 16 mph    
Visibility 10 miles    
Events Rain    
Averages and records for this station are not official NWS values.
T = Trace of Precipitation, MM = Missing Value Source: NWS Daily Summary

Daily Weather History Graph

Daily Weather History Graph

Search for Another Location

Airport:

Trip Planner

Search our weather history database for the weather conditions in past years. The results will help you decide how hot, cold, wet, or windy it might be!

Date:

Astronomy

Aug. 22, 2013 Rise Set
Actual Time 6:27 AM EDT 7:46 PM EDT
Civil Twilight 6:00 AM EDT 8:13 PM EDT
Nautical Twilight 5:27 AM EDT 8:45 PM EDT
Astronomical Twilight 4:53 AM EDT 9:18 PM EDT
Moon 8:33 PM EDT (8/22) 8:09 AM EDT (8/22)
Length of Visible Light 14h 12m
Length of Day
13h 18m
Waning Gibbous, 97% of the Moon is Illuminated
Aug 22
Waning Gibbous
Aug 28
Last Quarter
Sep 5
New
Sep 12
First Quarter
Sep 19
Full

Hourly Weather History & Observations

Time (EDT) Temp. Heat Index Dew Point Humidity Pressure Visibility Wind Dir Wind Speed Gust Speed Precip Events Conditions
12:56 AM 77.0 °F - 72.0 °F 84% 30.12 in 10.0 mi South 5.8 mph - N/A   Overcast
1:56 AM 75.9 °F - 72.0 °F 87% 30.12 in 8.0 mi SSW 5.8 mph - N/A   Overcast
2:02 AM 75.2 °F - 73.4 °F 94% 30.11 in 5.0 mi South 5.8 mph - 0.01 in Rain Rain
2:23 AM 75.2 °F - 73.4 °F 94% 30.10 in 10.0 mi South 4.6 mph - 0.01 in   Overcast
2:56 AM 75.9 °F - 73.0 °F 91% 30.10 in 10.0 mi SSW 8.1 mph - 0.01 in   Overcast
3:56 AM 75.9 °F - 73.0 °F 91% 30.09 in 10.0 mi SSW 4.6 mph - N/A   Mostly Cloudy
4:56 AM 75.0 °F - 73.0 °F 94% 30.09 in 10.0 mi SSW 5.8 mph - N/A   Scattered Clouds
5:56 AM 73.0 °F - 72.0 °F 96% 30.08 in 10.0 mi WSW 8.1 mph - N/A   Scattered Clouds
6:56 AM 73.9 °F - 72.0 °F 93% 30.10 in 10.0 mi WSW 4.6 mph - N/A   Mostly Cloudy
7:56 AM 75.0 °F - 72.0 °F 90% 30.10 in 10.0 mi SW 8.1 mph - N/A   Mostly Cloudy
8:56 AM 77.0 °F - 72.0 °F 84% 30.10 in 10.0 mi WSW 9.2 mph - N/A   Mostly Cloudy
9:56 AM 79.0 °F - 72.0 °F 79% 30.09 in 10.0 mi WSW 6.9 mph - N/A   Mostly Cloudy
10:56 AM 80.1 °F 84.2 °F 73.0 °F 79% 30.09 in 10.0 mi WSW 8.1 mph - 0.00 in Rain Light Rain
11:07 AM 80.6 °F 84.6 °F 71.6 °F 74% 30.08 in 10.0 mi SW 9.2 mph - 0.00 in   Mostly Cloudy
11:56 AM 82.0 °F 87.4 °F 73.0 °F 74% 30.07 in 10.0 mi SW 6.9 mph - 0.00 in   Mostly Cloudy
12:56 PM 84.0 °F 90.2 °F 73.0 °F 69% 30.06 in 10.0 mi West 5.8 mph - N/A   Mostly Cloudy
1:56 PM 86.0 °F 93.0 °F 73.0 °F 65% 30.04 in 10.0 mi WSW 10.4 mph - N/A   Mostly Cloudy
2:56 PM 87.1 °F 92.8 °F 71.1 °F 59% 30.01 in 10.0 mi WSW 8.1 mph 16.1 mph N/A   Mostly Cloudy
3:56 PM 87.1 °F 92.0 °F 70.0 °F 57% 29.98 in 10.0 mi WSW 9.2 mph - N/A   Scattered Clouds
4:56 PM 84.9 °F 91.4 °F 73.0 °F 67% 29.97 in 10.0 mi East 5.8 mph - N/A   Mostly Cloudy
5:56 PM 84.0 °F 91.2 °F 73.9 °F 72% 29.97 in 10.0 mi East 5.8 mph - N/A   Mostly Cloudy
6:56 PM 82.9 °F 89.4 °F 73.9 °F 74% 29.97 in 10.0 mi East 4.6 mph - N/A   Mostly Cloudy
7:56 PM 79.0 °F - 73.9 °F 84% 29.98 in 10.0 mi ESE 4.6 mph - N/A   Mostly Cloudy
8:56 PM 78.1 °F - 73.0 °F 84% 29.99 in 10.0 mi Calm Calm - N/A   Mostly Cloudy
9:56 PM 78.1 °F - 72.0 °F 81% 30.00 in 10.0 mi Calm Calm - N/A   Scattered Clouds
10:56 PM 75.9 °F - 72.0 °F 87% 29.99 in 10.0 mi WSW 5.8 mph - N/A   Partly Cloudy
11:56 PM 75.9 °F - 72.0 °F 87% 29.98 in 10.0 mi WSW 3.5 mph - N/A   Clear